Tracking 29892 objects as of 21-Nov-2024
HD Live streaming from Space Station
objects crossing your sky now

STARLINK-32338

Track STARLINK-32338 now!
10-day predictions
STARLINK-32338 is classified as:


NORAD ID: 61519
Int'l Code: 2024-183L
Perigee: 424.9 km
Apogee: 426.8 km
Inclination: 53.2 °
Period: 92.9 minutes
Semi major axis: 6796 km
RCS: Unknown
Launch date: October 15, 2024
Source: United States (US)
Launch site: AIR FORCE EASTERN TEST RANGE (AFETR)
Your satellite tracking list
Your tracking list is empty




NASA's NSSDC Master Catalog

Two Line Element Set (TLE):
1 61519U 24183L   24325.66007033  .00001110  00000-0  28002-4 0  9990
2 61519  53.1604 194.4000 0001459  75.4100 284.7070 15.49320202  6931
Source of the keplerian elements: AFSPC